Location: Brachbach
(49.1847°N, 9.7240°E)
Time: 22:35:22
(UTC+00:00)

DUCHIFAT 1 - Visible Passes

Search period start: 12 March 2026 00:00
Search period end: 22 March 2026 00:00
Orbit: 412 x 420 km, 98.1° (Epoch: 12 March)

Date Brightness Start Highest point End Pass type
(mag) Time Alt. Az. Time Alt. Az. Time Alt. Az.
12 Mar ? 19:22:25 68° SSW 19:22:40 74° WSW 19:25:52 10° NNW visible
13 Mar ? 18:36:31 23° E 18:37:27 28° ENE 18:40:14 10° N visible
13 Mar ? 20:09:28 19° W 20:09:30 19° W 20:11:51 10° NW visible
14 Mar ? 19:23:27 61° SSW 19:23:53 73° WSW 19:27:05 10° NNW visible
15 Mar ? 18:37:20 22° ESE 18:38:27 28° ENE 18:41:14 10° N visible
15 Mar ? 20:10:16 19° W 20:10:28 19° W 20:12:50 10° NW visible
16 Mar ? 19:24:03 54° S 19:24:39 74° WSW 19:27:50 10° NNW visible
17 Mar ? 18:37:43 21° ESE 18:38:59 27° ENE 18:41:45 10° N visible
17 Mar ? 20:10:37 19° WSW 20:11:00 19° W 20:13:23 10° NW visible
18 Mar ? 19:24:11 48° S 19:24:57 76° W 19:28:09 10° NNW visible
19 Mar ? 18:37:37 19° ESE 18:39:05 26° ENE 18:41:49 10° N visible
19 Mar ? 20:10:31 19° WSW 20:11:04 20° W 20:13:28 10° NW visible
20 Mar ? 19:23:52 43° S 19:24:47 79° WSW 19:28:00 10° NNW visible
21 Mar ? 18:37:06 17° ESE 18:38:43 26° ENE 18:41:26 10° N visible
21 Mar ? 20:09:58 19° WSW 20:10:40 20° W 20:13:08 10° NW visible
